Regional Weather Roundup
Issued by NWS

Home | Current Version | Previous Version | Text Only | Print | Product List | Glossary Off
Versions: 1 2 3 4 5 6 7 8 9 10 11 12 13 14 15 16 17 18 19 20 21 22 23 24 25 26 27 28 29 30 31 32 33 34 35 36 37 38 39 40 41 42 43 44 45 46 47 48 49 50

000
ASUS43 KOAX 072110
RWRNE

WEATHER ROUNDUP FOR NEBRASKA
NATIONAL WEATHER SERVICE OMAHA NE
300 PM CST WED DEC 07 2016

NOTES: SATELLITE DATA IS BEING USED TO AUGMENT CLOUD COVER ABOVE
       12000 FEET.
       "FAIR" INDICATES FEW OR NO CLOUDS BELOW 12,000 FEET WITH NO
       SIGNIFICANT WEATHER AND/OR OBSTRUCTIONS TO VISIBILITY.

  * THESE STATIONS DO NOT REPORT WEATHER SUCH AS RAIN...SNOW OR FOG.

NEZ001>004-019>022-054>056-072200-
NEBRASKA PANHANDLE

CITY           SKY/WX    TMP DP  RH WIND       PRES   REMARKS
SCOTTSBLUFF    SUNNY     14   0  53 NW18G25   30.31S WCI  -3
ALLIANCE       MOSUNNY   15   1  53 NW16      30.28R WCI  -1
CHADRON        SUNNY     12  -4  48 NW21G30   30.36R WCI  -7
KIMBALL        MOSUNNY   10   3  74 NW13G21   30.24R WCI  -5
SIDNEY         PTSUNNY   12   4  70 N18       30.27R WCI  -6
$$

NEZ057>060-069>072-079>082-072200-
SOUTHWEST NEBRASKA

CITY           SKY/WX    TMP DP  RH WIND       PRES   REMARKS
NORTH PLATTE   CLOUDY    21   3  45 N15G22    30.32R WCI   8
IMPERIAL       CLOUDY    16   8  71 NW15      30.32R WCI   1
LEXINGTON      PTSUNNY   24   2  40 N12G21    30.33R WCI  12
MCCOOK         LGT SNOW  18  11  74 N13       30.35R WCI   5
OGALLALA       CLOUDY    19   9  67 NW16      30.32R WCI   4
$$

NEZ005>010-023>029-035>040-094-072200-
NORTH CENTRAL NEBRASKA

CITY           SKY/WX    TMP DP  RH WIND       PRES   REMARKS
VALENTINE      SUNNY     16   0  49 NW21G31   30.33R WCI  -1
AINSWORTH      SUNNY     17   2  53 NW22G31   30.31R WCI  -1
BROKEN BOW     PTSUNNY   20   1  43 NW18G25   30.31R WCI   5
O`NEILL        SUNNY     19   3  50 NW17G24   30.32S WCI   3
ORD            SUNNY     22   0  38 NW15G25   30.32R WCI   9
THEDFORD       SUNNY     20   2  46 NW16G24   30.31R WCI   6
$$

NEZ041-046>049-061>064-073>077-083>087-072200-
SOUTH CENTRAL NEBRASKA

CITY           SKY/WX    TMP DP  RH WIND       PRES   REMARKS
GRAND ISLAND   SUNNY     22   2  42 NW15      30.33R WCI   9
AURORA         MOSUNNY   23   2  41 NW14      30.33R WCI  11
HASTINGS       PTSUNNY   23   2  40 NW14      30.34R WCI  11
HEBRON         MOSUNNY   26   6  43 NW14      30.35R WCI  14
HOLDREGE       PTSUNNY   23   7  50 NW10      30.33R WCI  12
KEARNEY *      SUNNY     23   0  36 N16       30.33R WCI  10
YORK           SUNNY     23   5  46 NW20      30.33R WCI   8
$$

NEZ011>018-030>034-042>045-072200-
NORTHEAST NEBRASKA

CITY           SKY/WX    TMP DP  RH WIND       PRES   REMARKS
NORFOLK        CLOUDY    20   2  45 W21G26    30.30R WCI   4
ALBION         CLOUDY    22   2  43 NW20      30.32R WCI   6
BLAIR          MOSUNNY   24   8  49 NW15G22   30.30R WCI  12
FREMONT        MOSUNNY   23   7  50 NW15G23   30.33R WCI  10
TEKAMAH        SUNNY     24   8  50 NW17      30.32R WCI  11
WAYNE          MOSUNNY   21   4  49 W20       30.30R WCI   5
$$

NEZ050>053-065>068-078-088>093-072200-
SOUTHEAST NEBRASKA

CITY           SKY/WX    TMP DP  RH WIND       PRES   REMARKS
LINCOLN        MOSUNNY   26   5  40 NW17      30.35S WCI  13
OMAHA EPPLEY   PTSUNNY   25   7  46 NW17G26   30.32R WCI  12
BEATRICE       CLOUDY    27   8  46 NW17      30.34R WCI  14
FALLS CITY     CLOUDY    25   8  48 NW13      30.33R WCI  14
NEBRASKA CITY  CLOUDY    25   3  40 NW15G24   30.32S WCI  12
PLATTSMOUTH    CLOUDY    25   5  42 NW15G22   30.32R WCI  12
$$

NEZ044-045-051>053-067-072200-
OMAHA AREA

CITY           SKY/WX    TMP DP  RH WIND       PRES   REMARKS
OMAHA EPPLEY   PTSUNNY   25   7  46 NW17G26   30.32R WCI  12
BLAIR          MOSUNNY   24   8  49 NW15G22   30.30R WCI  12
FREMONT        MOSUNNY   23   7  50 NW15G23   30.33R WCI  10
MILLARD        PTSUNNY   26   7  44 NW14G23   30.33R WCI  14
OFFUTT AFB     MOSUNNY   25   8  47 NW16      30.32R WCI  13
PLATTSMOUTH    CLOUDY    25   5  42 NW15G22   30.32R WCI  12
WAHOO          FAIR      25   7  45 NW17G24   30.33R WCI  12
$$



USA.gov is the U.S. government's official web portal to all federal, state and local government web resources and services.